This demonstration page uses our WeatherBlox Daily Observations layout. Learn more.

Left ArrowRight Arrow

36.19886, -115.1175

Hourly Observations for November 30, 2022

Temp ( °F °C ) Dew Point ( °F °C ) Humidity (%) Winds ( mph kmh ) Pressure ( in mb ) Visibility ( mi km ) Precip ( " mm )
12:53 am 00:53 Clear 39 3.9 17 -8.3 40 40 WNW 3 6 30.14 1021 10 16 0.00 0.00
1:53 am 01:53 Clear 37 2.8 17 -8.3 44 44 NW 3 6 30.14 1021 10 16 0.00 0.00
2:53 am 02:53 Clear 35 1.7 15 -9.4 43 43 WNW 6 9 30.13 1020 10 16 0.00 0.00
3:53 am 03:53 Clear 36 2.2 17 -8.3 46 46 N 5 7 30.13 1020 10 16 0.00 0.00
4:53 am 04:53 Clear 35 1.7 16 -8.9 45 45 NNW 5 7 30.13 1020 10 16 0.00 0.00
5:53 am 05:53 Clear 35 1.7 16 -8.9 45 45 WNW 5 7 30.14 1021 10 16 0.00 0.00
6:53 am 06:53 Sunny 35 1.7 16 -8.9 45 45 NW 3 6 30.15 1021 10 16 0.00 0.00
7:53 am 07:53 Sunny 40 4.4 17 -8.3 39 39 NNW 3 6 30.15 1021 10 16 0.00 0.00
8:53 am 08:53 Sunny 45 7.2 16 -8.9 31 31 SE 3 6 30.15 1021 10 16 0.00 0.00
9:53 am 09:53 Sunny 48 8.9 17 -8.3 29 29 ESE 5 7 30.15 1021 10 16 0.00 0.00
10:53 am 10:53 Sunny 50 10 13 -10.6 22 22 ESE 6 9 30.12 1020 10 16 0.00 0.00
11:53 am 11:53 Sunny 52 11.1 13 -10.6 21 21 ESE 8 13 30.08 1019 10 16 0.00 0.00
12:53 pm 12:53 Sunny 54 12.2 12 -11.1 18 18 VRB 3 6 30.05 1018 10 16 0.00 0.00
1:53 pm 13:53 Sunny 56 13.3 12 -11.1 17 17 Calm 30.02 1017 10 16 0.00 0.00
2:53 pm 14:53 Sunny 56 13.3 13 -10.6 18 18 Calm 30.01 1016 10 16 0.00 0.00
3:53 pm 15:53 Sunny 56 13.3 13 -10.6 18 18 Calm 30.01 1016 10 16 0.00 0.00
4:53 pm 16:53 Clear 54 12.2 13 -10.6 19 19 Calm 30.01 1016 10 16 0.00 0.00
5:53 pm 17:53 Clear 53 11.7 15 -9.4 22 22 Calm 30.01 1016 10 16 0.00 0.00
6:53 pm 18:53 Clear 50 10 16 -8.9 25 25 Calm 30.03 1017 10 16 0.00 0.00
7:53 pm 19:53 Clear 47 8.3 18 -7.8 31 31 WSW 3 6 30.02 1017 10 16 0.00 0.00
8:53 pm 20:53 Clear 46 7.8 17 -8.3 31 31 Calm 30.01 1016 10 16 0.00 0.00
9:53 pm 21:53 Clear 44 6.7 18 -7.8 35 35 W 6 9 30.02 1017 10 16 0.00 0.00
10:53 pm 22:53 Clear 42 5.6 18 -7.8 37 37 WNW 8 13 30.02 1017 10 16 0.00 0.00
11:53 pm 23:53 Clear 42 5.6 18 -7.8 37 37 W 6 9 30.01 1016 10 16 0.00 0.00

Powered by AerisWeather